OBJECT R, 57181

Orbit data source: Space-Track

You're viewing an Uncataloged Satellite

Recently launched and/or uncataloged satellites may have evolving metadata. Metadata may include but not limited to: Owner, Maufacturer, Bus, Motor, and Mission.

OBJECT R, 57181 is a satellite in SSO that was launched on Tue, 27 Jun 2023 UTC via a SOYUZ-2-1B launch vehicle from the Vostochny Cosmodrome (VOSTO). Unknown objects in Earth's orbit typically refer to objects detected orbiting the Earth but have not yet been identified or cataloged. These objects could be anything from previously untracked satellites, spent rocket stages, debris from satellite collisions, or even natural meteoroids temporarily captured by Earth's gravity.

Loading next visibility...
Identifier
57181, 2023-091R
Orbit
SSO
Country
Flag of TBDTBD
Related business
None
Manufacturer
Unknown
Mission
Operational Amateur Communications
Bus & Motor
Unknown
Mass
Unknown
Launch date (UTC)
2023-06-27 (3 years ago)
Launch vehicle
SOYUZ-2-1B
Launch site
Vostochny Cosmodrome (VOSTO)
Object type
Unknown
Shape & HBR
Box, 0.1 m
Radar Cross Section
0.035 m², Medium (>0.1 m² and < 1m²)

Expand to show TLE details & history
Last TLE update: 7 hours ago

TLE from 7 hours ago
0 OBJECT R
1 57181U 23091R   26162.80932566  .00002894  00000-0  16050-3 0  9991
2 57181  97.5071 216.8305 0015948 151.2127 208.9988 15.14463622162876
Epoch: 2026-06-11T19:25Z
TLE epoch observation values (Epoch: 2026-06-11T19:25:25.737Z)
Latitude
-0.00002°
Longitude
25.32547°
Altitude
535.319 km
Speed
7.59 km/s
True Right ascension
14h 27m 19s
True Declination
0° 00' 00"
Sunlit
Object was in full shadow at epoch
Visualization orbit readout
Latitude
Unknown
Longitude
Unknown
Altitude
Unknown
Speed
Unknown
Apparent Right ascension
Unknown
Apparent Declination
Unknown
Sunlit
N/A
Visualization observer readout
Local Sidereal Time
12:54:33
Azimuth
Unknown
Elevation
Unknown
Doppler factor
Unknown
Orbital elements
Apogee altitude
530.585 km
Perigee altitude
508.585 km
Semi-major axis
6,897.722 km
Eccentricity
0.00159
Inclination
97.5071°
RAAN
216.8305°
Arg. of periapsis
151.2127°
True anomaly
208.91036°
Mean anomaly
208.9988°
Eccentric anomaly
208.95456°
Mean motion
3.78865 °/min
Orbital period
95.02 mins
BSTAR
0.0001605
Loading maneuver chart data...
Computing Atmospheric mass density...
Loading historical data...
Loading historical data...
Loading historical data...
Loading historical data...
Loading historical data...
Loading historical data...
Loading historical data...

Documentation

Showing up to 5 results
|